[[{"header":{"parameterUnit":"m.s-1","parameterCategory":1,"la1":30.2992,"la2":30.254,"lo1":-89.0895,"lo2":-89.0443,"dy":0.0025,"dx":0.0025,"nx":19,"ny":19,"refTime":"2026-04-28T21:00:00:Z","depth":0,"parameterNumber":2,"parameterNumberName":"U-component_of_WINDS"},"data":[0,0,0,1.0082,1.0082,1.0092,1.0092,1.0104,1.0104,0,0,0,0,0,0,0,0,0,0,0,1.0078,1.0078,1.0082,1.0082,1.0092,1.0092,1.0104,1.0104,0,0,0,0,0,0,0,0,0,0,0,1.0078,1.0078,1.0078,1.0082,1.0092,1.0092,1.0104,1.0097,0,0,0,0,0,0,0,0,0,0,1.0088,1.0082,1.0078,1.0078,1.0082,1.0092,1.0092,1.0097,1.0097,1.0099,0,1.0098,0,1.0101,1.0105,1.0105,0,0,0,1.0084,1.0081,1.0085,1.0078,1.0083,1.0092,1.0088,1.0097,1.0098,1.01,1.0099,1.0099,1.0102,1.0105,1.0105,1.0106,1.0106,0,0,1.0083,1.0079,1.0085,1.0086,1.0083,1.0088,1.0088,1.0098,1.0097,1.0099,1.0099,1.0102,1.0105,1.0105,1.0106,1.0106,0,0,0,1.0081,1.0078,1.0082,1.0085,1.0087,1.0088,1.0089,1.0096,1.0098,1.01,1.0102,1.0105,1.0105,1.0106,1.0106,1.0098,0,0,0,1.0081,1.0077,1.0082,1.0079,1.0086,1.0091,1.0087,1.0097,1.0098,1.0102,1.0105,1.0105,1.0106,1.0106,1.0098,1.0095,0,0,0,1.0078,1.0076,1.0077,1.0079,1.0083,1.0091,1.0093,1.0097,1.01,1.0105,1.0105,1.0106,1.0106,1.0099,1.0095,1.0094,0,0,0,1.0073,1.007,1.0077,1.0074,1.0083,1.0086,1.0093,1.0096,1.01,1.0105,1.0106,1.0106,1.0099,1.0096,1.0094,1.0092,1.009,0,0,1.0067,1.0069,1.0068,1.0075,1.0075,1.0085,1.0085,1.0093,1.0098,1.0103,1.0103,1.0098,1.0095,1.0094,1.0084,1.0083,0,0,0,1.0064,1.0064,1.0065,1.0067,1.0073,1.0078,1.0086,1.0089,1.0094,1.0099,1.0097,1.0096,1.0095,1.0095,1.0093,1.0094,1.0105,1.0105,1.0105,1.0048,1.0055,1.0054,1.0061,1.0064,1.0073,1.0076,1.0082,1.0088,1.0088,1.0089,1.0082,1.0081,1.008,1.008,1.0088,1.0088,1.0088,1.0088,1.0039,1.0039,1.0047,1.0049,1.0057,1.0059,1.0068,1.0072,1.0076,1.0081,1.0081,1.0086,1.0078,1.0079,1.0088,1.0088,1.0088,1.0088,1.0088,1.0029,1.003,1.0034,1.0039,1.0043,1.0052,1.0055,1.0062,1.0068,1.0068,1.0071,1.0071,1.0073,1.0069,1.0069,1.0069,1.0069,1.0069,1.0069,1.0017,1.0022,1.0023,1.0029,1.0033,1.0038,1.0048,1.0051,1.0057,1.0062,1.0062,1.0069,1.0076,1.0078,1.0069,1.0069,1.0069,1.0069,1.0069,1.0006,1.001,1.0012,1.0015,1.0024,1.0027,1.0036,1.0044,1.0048,1.005,1.0057,1.0061,1.0064,1.0065,1.0066,1.0055,1.0055,1.0055,1.0055,0.9997,1.0,1.0004,1.0009,1.0014,1.0023,1.0027,1.0035,1.0044,1.0048,1.0051,1.0053,1.0054,1.0057,1.0058,1.0059,1.0046,1.0046,1.0046,0.9991,0.9994,0.9995,1.0004,1.0011,1.0018,1.0022,1.0029,1.004,1.0046,1.0051,1.0051,1.0055,1.0056,1.0062,1.0063,1.0066,0,0]},{"header":{"parameterUnit":"m.s-1","parameterCategory":1,"la1":30.2992,"la2":30.254,"lo1":-89.0895,"lo2":-89.0443,"dy":0.0025,"dx":0.0025,"nx":19,"ny":19,"refTime":"2026-04-28T21:00:00:Z","depth":0,"parameterNumber":3,"parameterNumberName":"V-component_of_WINDS"},"data":[0,0,0,3.1673,3.1673,3.1645,3.1645,3.1616,3.1616,0,0,0,0,0,0,0,0,0,0,0,3.1687,3.1687,3.1674,3.1673,3.1645,3.1645,3.1616,3.1616,0,0,0,0,0,0,0,0,0,0,0,3.1687,3.1687,3.1687,3.1673,3.1645,3.1645,3.1616,3.1635,0,0,0,0,0,0,0,0,0,0,3.166,3.1678,3.1687,3.1687,3.1673,3.1645,3.1645,3.1635,3.1633,3.1632,0,3.1633,0,3.1624,3.1615,3.1614,0,0,0,3.1669,3.1679,3.1667,3.1687,3.1673,3.1645,3.1657,3.1634,3.1632,3.163,3.1632,3.1631,3.1624,3.1614,3.1614,3.1623,3.1623,0,0,3.167,3.1684,3.1669,3.1666,3.1672,3.1657,3.1656,3.1633,3.1636,3.1632,3.163,3.1623,3.1614,3.1614,3.1623,3.1623,0,0,0,3.1678,3.1685,3.1674,3.1668,3.1662,3.1657,3.1655,3.1637,3.1633,3.163,3.1623,3.1614,3.1614,3.1623,3.1623,3.1649,0,0,0,3.1678,3.1689,3.1675,3.1683,3.1663,3.165,3.166,3.1634,3.1631,3.1623,3.1614,3.1614,3.1622,3.1623,3.1648,3.1659,0,0,0,3.1687,3.169,3.1688,3.1684,3.1672,3.165,3.1643,3.1633,3.1627,3.1614,3.1614,3.1622,3.1623,3.1647,3.1657,3.1666,0,0,0,3.1699,3.171,3.1689,3.1698,3.1673,3.1667,3.1643,3.1638,3.163,3.1614,3.1622,3.1623,3.1646,3.1656,3.1665,3.1677,3.1683,0,0,3.1721,3.1713,3.1718,3.1698,3.17,3.167,3.1674,3.1653,3.1639,3.1629,3.1629,3.1648,3.1657,3.1666,3.1712,3.1717,0,0,0,3.1729,3.1733,3.173,3.1725,3.171,3.1699,3.1676,3.1668,3.166,3.1637,3.1653,3.1658,3.1663,3.1668,3.1672,3.1676,3.1626,3.1626,3.1626,3.1779,3.1761,3.1768,3.1748,3.1742,3.172,3.1714,3.1699,3.1682,3.1686,3.1683,3.1713,3.172,3.1723,3.1727,3.1687,3.1688,3.1688,3.1688,3.1809,3.1812,3.179,3.1789,3.177,3.1768,3.1747,3.1735,3.1731,3.1714,3.1717,3.17,3.1729,3.1731,3.1689,3.1689,3.1689,3.1689,3.1689,3.184,3.1838,3.183,3.1821,3.1816,3.1794,3.1792,3.1774,3.1757,3.1761,3.1756,3.1756,3.1754,3.176,3.176,3.176,3.176,3.176,3.176,3.1875,3.1865,3.1866,3.1853,3.1848,3.1838,3.1817,3.1811,3.18,3.1787,3.1787,3.177,3.1735,3.1727,3.1762,3.1761,3.1761,3.1761,3.1761,3.1913,3.1902,3.1903,3.1898,3.1882,3.1879,3.1857,3.1847,3.1839,3.1839,3.1821,3.1798,3.1789,3.1785,3.1779,3.1824,3.1824,3.1824,3.1824,3.1939,3.1933,3.1931,3.1925,3.1916,3.1897,3.1899,3.1883,3.1864,3.1859,3.1849,3.1839,3.1836,3.1828,3.1824,3.1817,3.1872,3.1872,3.1872,3.1962,3.1955,3.196,3.1943,3.1929,3.1918,3.192,3.1913,3.1889,3.1874,3.1854,3.1852,3.1835,3.183,3.1814,3.1808,3.1796,0,0]}]]